Tracking 34138 objects as of 15-May-2026
HD Live streaming from Space Station
objects crossing your sky now

STARLINK-37013

Track STARLINK-37013 now!
10-day predictions
STARLINK-37013 is classified as:


NORAD ID: 68162
Int'l Code: 2026-049W
Perigee: 472.1 km
Apogee: 473.2 km
Inclination: 97.3 °
Period: 93.9 minutes
Semi major axis: 6843 km
RCS: Unknown
Launch date: March 13, 2026
Source: United States (US)
Launch site: AIR FORCE WESTERN TEST RANGE (AFWTR)
Your satellite tracking list
Your tracking list is empty




NASA's NSSDC Master Catalog

Two Line Element Set (TLE):
1 68162U 26049W   26135.03479623  .00013266  00000-0  41247-3 0  9994
2 68162  97.2841 156.8159 0000806  95.6909 264.4426 15.33449172  9818
Source of the keplerian elements: AFSPC